Regional Weather Roundup
Issued by NWS Wakefield, VA

Home | Current Version | Previous Version | Graphics & Text | Print | Product List | Glossary On
Versions: 1 2 3 4 5 6 7 8 9 10 11 12 13 14 15 16 17 18 19 20 21 22 23 24 25 26 27
000
ASUS41 KAKQ 162015
RWRAKQ

REGIONAL WEATHER ROUNDUP
NATIONAL WEATHER SERVICE WAKEFIELD VA
400 PM EDT MON OCT 16 2017

Note: "fair" indicates few or no clouds below 12,000 feet with no
significant weather and/or obstructions to visibility. * = Denotes
station may not report precipitation (e.g., rain,snow,etc.),
thunder or fog.

VAZ042-051-052>054-056-162100-
NORTHERN VIRGINIA

CITY           SKY/WX    TMP DP  RH WIND       PRES   REMARKS
WASH NATIONAL  CLOUDY    65  38  36 NW20      30.11R
DULLES         MOSUNNY   64  35  34 N20G32    30.11R
FORT BELVOIR   MOSUNNY   65  36  35 NW12G25   30.11S
QUANTICO       CLOUDY    66  40  38 N13       30.12S
FREDERICKSBRG* CLOUDY    64  43  45 NW12G18   30.11S
STAFFORD*      MOSUNNY   64  39  41 NW12G22   30.15S
WARRENTON      CLOUDY    66  32  27 NW13G22   30.12R
CULPEPER*      PTSUNNY   66  36  33 N10G18    30.13S
MANASSAS*      SUNNY     66  38  35 N16G23    30.12R
LEESBURG*      SUNNY     64  39  39 N17G23    30.13R
WINCHESTER     SUNNY     61  34  36 NW18G24   30.14R
FRONT ROYAL*   CLEAR     61  36  39 NW9G18    30.13S
LURAY*         PTCLDY    63  37  39 N13       30.14S
$$

VAZ048-049-060>072-079>083-162100-
CENTRAL AND SOUTH CENTRAL VIRGINIA

CITY           SKY/WX    TMP DP  RH WIND       PRES   REMARKS
RICHMOND       CLOUDY    64  44  48 N12       30.10R
CHESTERFIELD*  NOT AVBL
PETERSBURG*    CLOUDY    64  45  49 N12G18    30.10R
HANOVER        CLOUDY    63  42  46 NW13G23   30.11R
TAPPAHANNOCK*  CLOUDY    64  38  37 NE8       30.10S
QUINTON*       FAIR      63  46  53 NW9       30.09R
CHARLOTTSVILLE MOSUNNY   63  41  44 N8        30.14R
GORDONSVILLE*  PTCLDY    63  40  42 N6        30.13R
ORANGE*        MOSUNNY   63  37  39 NW15G21   30.13R
LOUISA*        CLOUDY    63  41  45 NW14      30.12R
BUMPASS*       FAIR      63  44  50 NW10G16   30.12R
FARMVILLE*     PTSUNNY   65  46  49 N8        30.10R
CREWE*         MOCLDY    64  47  54 NW10G21   30.10R
FORT PICKETT*  CLOUDY    63  47  56 NW7       30.09R
CHASE CITY*    CLOUDY    65  48  54 N6        30.10R
CLARKSVILLE*   CLOUDY    64  52  63 N5        30.09R
SOUTH HILL*    CLOUDY    64  55  73 N10       30.14S
LAWRENCEVILLE* MOCLDY    62  53  72 CALM      30.09R
EMPORIA*       CLOUDY    61  52  72 NW8       30.10S
$$

VAZ088>098-162100-
SOUTHEAST VIRGINIA

CITY           SKY/WX    TMP DP  RH WIND       PRES   REMARKS
NORFOLK        LGT RAIN  62  48  60 N18G29    30.05R
VIRGINIA BEACH LGT RAIN  60  52  74 N15G26    30.04R
NORFOLK NAVAL  NOT AVBL
WEST POINT*    PTSUNNY   62  43  49 N10G17    30.10R
SALUDA*        MOCLDY    62  48  61 NW13G21   30.08R
NEWPORT NEWS   CLOUDY    61  48  62 N9        30.08R
LANGLEY AFB    CLOUDY    61  49  64 N9        30.07R
FORT EUSTIS    CLOUDY    62  49  63 N9        30.05R
WILLIAMSBURG*  CLOUDY    63  55  77 N6        30.09R
HR EXEC AP*    NOT AVBL
FRANKLIN*      CLOUDY    60  52  75 N5        30.08S
US460-WAKEFLD  CLOUDY    62  52  69 VRB5      30.08R
$$

VAZ020-022-025-037-045-162100-
WEST CENTRAL AND SOUTHWEST VIRGINIA

CITY           SKY/WX    TMP DP  RH WIND       PRES   REMARKS
STAUNTON*      SUNNY     61  38  43 NW14      30.17R
WAYNESBORO*    CLOUDY    60  39  46 N12G21    30.15R
HOT SPRINGS VA CLOUDY    50  33  53 N9G18     30.18R
LYNCHBURG      PTSUNNY   62  40  44 MISG      30.13R
DANVILLE       CLOUDY    67  46  47 N13       30.11S
SOUTH BOSTON*  MOCLDY    66  45  46 NW8       30.10R
MARTINSVILLE   MOSUNNY   61  40  46 N10G21    30.17R
ROANOKE        PTSUNNY   63  39  41 NW12G24   30.18R
BLACKSBURG     CLOUDY    55  39  55 N13G18    30.22S
DUBLIN*        CLOUDY    55  40  55 N12       30.21S
MARION*        PTSUNNY   55  32  42 N14G22    30.23S
HILLSVILLE*    PTSUNNY   51  32  48 N20G28    30.17S
RICHLANDS*     MOCLDY    53  36  52 NW10G21   30.23F
WISE*          PTSUNNY   54  39  58 NE9       30.26S
ABINGDON*      MOSUNNY   56  39  52 N7        30.23S
$$

MDZ021>025-VAZ099-100-162100-
SOUTHERN MARYLAND AND THE DELMARVA PENINSULA

CITY           SKY/WX    TMP DP  RH WIND       PRES   REMARKS
PATUXENT RIVER CLOUDY    64  44  48 N14       30.09R
BAY BRIDGE APT CLOUDY    61  45  55 N8        30.09S
LEONARDTOWN    NOT AVBL
DOVER          SUNNY     59  43  54 NW16      30.07R
GEORGETOWN     CLOUDY    60  46  59 N8        30.08R
EASTON         MOSUNNY   61  45  55 N9        30.13R
CAMBRIDGE      PTSUNNY   61  45  55 N17G26    30.09R
SALISBURY      CLOUDY    59  49  69 N12G22    30.06R
OCEAN CITY     CLOUDY    58  51  78 N13       30.06R
WALLOPS ISLAND CLOUDY    59  50  72 NW9G17    30.08R
ACCOMACK*      CLOUDY    61  53  74 N8G16     30.07R
$$

NCZ012>017-030>032-162100-
NORTH CENTRAL AND EASTERN NORTH CAROLINA

CITY           SKY/WX    TMP DP  RH WIND       PRES   REMARKS
ROANOKE RAPIDS CLOUDY    59  55  88 NE5       30.07F
RALEIGH        CLOUDY    62  55  77 N7        30.10R
ELIZABETH CITY LGT RAIN  62  60  93 NW15      30.05R
AHOSKIE*       CLOUDY    57  54  89 N6        30.07S
EDENTON*       LGT RAIN  60  58  92 N3        30.06R
CURRITUCK*     CLOUDY    61  59  92 NW13      30.04S
KILL DEVIL HLS LGT RAIN  64  57  77 N10G17    30.01R
MANTEO         LGT RAIN N/A N/A N/A N17G23    30.02R
CAPE HATTERAS  CLOUDY    70  64  81 NE12G25   29.97R
TARBORO*       NOT AVBL
GOLDSBORO      CLOUDY    57  55  94 N6        30.05R
WASHINGTON     LGT RAIN  57  55  94 N13G21    30.04S
GREENVILLE     LGT RAIN  57  55  94 N8        30.07R
NEW BERN       CLOUDY    63  61  93 N18G24    30.01R
WILMINGTON     CLOUDY    69  65  86 N17G26    29.97R
$$

VAZ048-162100-
ELSEWHERE

CITY           SKY/WX    TMP DP  RH WIND       PRES   REMARKS
HARRISBURG PA  MOSUNNY   63  35  35 NW10      30.09S
BALTIMORE      PTSUNNY   64  39  39 NW12G18   30.09R
ANNAPOLIS      CLOUDY    63  44  50 NW15      30.10R
ANDREWS AFB    CLOUDY    63  37  39 NW15      30.09R
PHILADELPHIA   PTSUNNY   58  39  49 NW14      30.08R
HENDERSON NC   CLOUDY    57  56  94 CALM      30.09S
GREENSBORO     CLOUDY    65  43  44 N12G20    30.11F
ROCKY MOUNT    CLOUDY    59  57  93 N10       30.07S
$$

VAZ100-162100-
MARINE

STATION/POSITION TIME  TEMP    WIND        PRES    WAVE   SWELL
                       AIR SEA DIR/SP/G            HT/PER HT/PER
                 (UTC) (F)     (DEG/KT/KT) (MB)    (FT/S) (FT/S)
BRANDYWINE LGT   1936   59     340/ 20/ 26 1018.0R
CAPE MAY NJ      1936   59 68  340/ 15/ 21 1017.0S
LEWES DE         1936   60 68  340/ 18/ 22 1017.4R
15NM E FENWICK I 1950   61 69  320/ 19/ 23 1016.9S   4/ 5   2/ 8
OCEAN-CITY-INLET 1936   60 69  360/ 13/ 16 1017.7R
WACHAPREAGUE VA  1936   60 69  360/  6/ 10 1017.8R
THOMAS POINT MD  2000   61 70  350/ 18/ 21   N/A
GOOSES REEF MD   1950   61     360/ 14/ 17 1014.0R
COVE POINT MD    1936   60     360/ 16/ 24 1019.5R
SOLOMONS ISLAND  1936   60 71  340/ 14/ 17 1018.6R
BISHOPS HEAD MD  1936   61 68  340/ 15/ 18 1018.8R
PINEY POINT MD   1942          360/ 14/ 16   N/A
POTOMAC MD       1930   62     340/ 12/ 16 1017.8R
CAMBRIDGE MD     1936   61 70              1019.5R
LEWISETTA VA     1936   62 69  350/ 13/ 22 1018.7R
RAPPAHANNOCK LGT 1942          340/ 24/ 28 1018.6R
STINGRAY PT      1940   62      10/ 17/ 21 1018.3R
YORK RVR RNG VA  1942   62      10/ 19/ 22 1018.4R
YORKTOWN VA      1942   61 72  350/ 12/ 13 1018.2R
JAMESTOWN VA     1950           10/  8/ 12   N/A
DOMINION TERM VA 1942   62     340/ 10/ 16 1018.3R
KIPTOPEKE VA     1942      72  350/ 15/ 18   N/A
CAPE HENRY VA    1942   62     340/ 24/ 28   N/A
WILLOUBY STN VA  1942   62     350/ 15/ 19 1018.0R
S CRANEY ISL VA  1942   62     360/ 17/ 25 1017.7R
CAPE HENRY BUOY  1930      72                N/A     4/ 5
1ST LANDING BUOY 1930   62                 1017.3R
CAPE CHARLES BUO 1951      72                N/A     4/ 5
64NM E OF VA BCH 1950   65 70  360/ 19/ 23 1015.7S   6/ 6   2/11
DUCK PIER NC     1942   62 72   10/ 20/ 23 1015.8R
44100 DUCK FRF   1935      72                N/A     6/ 6   2/12
44056 DUCK FRF   1930      72                N/A     5/ 6
OREGON INLET NC  1942   65 74  350/ 13/ 19 1015.9R
HATTERAS NC      1942   69 77   40/ 15/ 22 1014.9R
DIAMOND SHLS NC  1950   72 79   10/ 19/ 23 1013.6F   3/ 4   2/ 8
CAPE LOOKOUT NC  2000   71     360/ 21/ 25 1014.1R
$$




USA.gov is the U.S. government's official web portal to all federal, state and local government web resources and services.